Regional Weather Roundup
Issued by NWS

Home | Current Version | Previous Version | Text Only | Print | Product List | Glossary Off
Versions: 1 2 3 4 5 6 7 8 9 10 11 12 13 14 15 16 17 18 19 20 21 22 23 24 25 26 27 28 29 30 31 32 33 34 35 36 37 38 39 40 41 42 43 44 45 46 47 48 49 50

000
ASUS43 KOAX 202002
RWRNE

WEATHER ROUNDUP FOR NEBRASKA
NATIONAL WEATHER SERVICE OMAHA NE
300 PM CDT MON OCT 20 2014

NOTES: SATELLITE DATA IS BEING USED TO AUGMENT CLOUD COVER ABOVE
       12000 FEET.
       "FAIR" INDICATES FEW OR NO CLOUDS BELOW 12,000 FEET WITH NO
       SIGNIFICANT WEATHER AND/OR OBSTRUCTIONS TO VISIBILITY.

  * THESE STATIONS DO NOT REPORT WEATHER SUCH AS RAIN...SNOW OR FOG.

NEZ001>004-019>022-054>056-202100-
NEBRASKA PANHANDLE

CITY           SKY/WX    TMP DP  RH WIND       PRES   REMARKS
SCOTTSBLUFF    SUNNY     80  50  34 S12       30.02F
ALLIANCE       SUNNY     76  37  24 S18G26    30.04F
CHADRON        SUNNY     80  42  25 S15       29.97F
KIMBALL        SUNNY     75  38  25 S20       30.07F
SIDNEY         SUNNY     76  38  25 S13       30.08F
$$

NEZ057>060-069>072-079>082-202100-
SOUTHWEST NEBRASKA

CITY           SKY/WX    TMP DP  RH WIND       PRES   REMARKS
NORTH PLATTE   SUNNY     77  39  25 S7        30.07F
IMPERIAL       SUNNY     75  39  27 S13       30.09F
LEXINGTON      SUNNY     77  41  27 S6        30.08F
MCCOOK         SUNNY     77  42  28 E6        30.09F
OGALLALA       SUNNY     78  39  24 S16       30.07F
$$

NEZ005>010-023>029-035>040-094-202100-
NORTH CENTRAL NEBRASKA

CITY           SKY/WX    TMP DP  RH WIND       PRES   REMARKS
VALENTINE      SUNNY     77  38  24 S10       30.04F
AINSWORTH      SUNNY     74  39  28 S8        30.06F
BROKEN BOW     SUNNY     74  44  34 SE6       30.08F
O`NEILL        SUNNY     71  41  33 CALM      30.08F
ORD            SUNNY     72  40  31 SE5       30.07F
THEDFORD       SUNNY     78  41  26 S10       30.07F
$$

NEZ041-046>049-061>064-073>077-083>087-202100-
SOUTH CENTRAL NEBRASKA

CITY           SKY/WX    TMP DP  RH WIND       PRES   REMARKS
GRAND ISLAND   SUNNY     74  40  29 VRB3      30.09F
AURORA         SUNNY     73  35  24 CALM      30.08F HAZE
HASTINGS       SUNNY     72  38  29 CALM      30.08F
HEBRON         SUNNY     74  36  24 E5        30.07F HAZE
HOLDREGE       SUNNY     74  39  28 CALM      30.08F
KEARNEY *      SUNNY     72  41  33 E3        30.10F
YORK           SUNNY     72  39  30 CALM      30.08F
$$

NEZ011>018-030>034-042>045-202100-
NORTHEAST NEBRASKA

CITY           SKY/WX    TMP DP  RH WIND       PRES   REMARKS
NORFOLK        SUNNY     72  37  28 CALM      30.06F
ALBION         SUNNY     71  36  27 CALM      30.08F
COLUMBUS *     SUNNY     72  34  25 N5        30.08F
FREMONT        SUNNY     72  37  28 NW6       30.06F
TEKAMAH        SUNNY     74  37  26 NW10      30.04F
WAYNE          SUNNY     71  36  27 NW6       30.06F
$$

NEZ050>053-065>068-078-088>093-202100-
SOUTHEAST NEBRASKA

CITY           SKY/WX    TMP DP  RH WIND       PRES   REMARKS
LINCOLN        SUNNY     74  39  28 CALM      30.07F
OMAHA EPPLEY   SUNNY     71  38  29 NW5       30.05F
BEATRICE       SUNNY     73  42  32 N3        30.06F HAZE
FALLS CITY     SUNNY     74  38  27 NW9       30.04F
NEBRASKA CITY  SUNNY     71  30  22 NE5       30.05F
PLATTSMOUTH    SUNNY     70  33  26 NE5       30.05F
$$

NEZ044-045-051>053-067-202100-
OMAHA AREA

CITY           SKY/WX    TMP DP  RH WIND       PRES   REMARKS
OMAHA EPPLEY   SUNNY     71  38  29 NW5       30.05F
FREMONT        SUNNY     72  37  28 NW6       30.06F
MILLARD        SUNNY     70  42  36 W3        30.05F
OFFUTT AFB     SUNNY     71  41  33 VRB5      30.05F
PLATTSMOUTH    SUNNY     70  33  26 NE5       30.05F
WAHOO          FAIR      73  32  22 N7        30.06F
$$


USA.gov is the U.S. government's official web portal to all federal, state and local government web resources and services.